• In Hungary
  • List of Countries
  • For 7 days
  • Water Temperature
  • Satellite Maps
  • Weather Map
  • News
  • Weather Widgets
  • user-avatar
    Login

    Hourly Weather Ostrovskiy

    Today, 18 August, Saturday

    Time Temperature Precipitation Wind Pressure Humidity
    00:00 +15°C° 0 mm 2 mps 755 mmHg 78%
    01:00 +15°C° 0 mm 2 mps 755 mmHg 79%
    02:00 +15°C° 0 mm 2 mps 755 mmHg 81%
    03:00 +14°C° 0 mm 2 mps 755 mmHg 82%
    04:00 +14°C° 0 mm 2 mps 755 mmHg 82%
    05:00 +14°C° 0 mm 2 mps 756 mmHg 82%
    06:00 +14°C° 0 mm 2 mps 756 mmHg 82%
    07:00 +16°C° 0 mm 2 mps 756 mmHg 74%
    08:00 +18°C° 0 mm 2 mps 756 mmHg 67%
    09:00 +20°C° 0 mm 3 mps 756 mmHg 59%
    10:00 +21°C° 0 mm 3 mps 756 mmHg 54%
    11:00 +22°C° 0 mm 3 mps 756 mmHg 49%
    12:00 +24°C° 0 mm 3 mps 756 mmHg 45%
    13:00 +24°C° 0 mm 3 mps 756 mmHg 44%
    14:00 +24°C° 0 mm 3 mps 756 mmHg 43%
    15:00 +25°C° 0 mm 3 mps 756 mmHg 42%
    16:00 +24°C° 0 mm 2 mps 756 mmHg 45%
    17:00 +24°C° 0 mm 2 mps 756 mmHg 49%
    18:00 +23°C° 0 mm 2 mps 756 mmHg 53%
    19:00 +20°C° 0 mm 2 mps 756 mmHg 57%
    20:00 +19°C° 0 mm 2 mps 756 mmHg 62%
    21:00 +17°C° 0 mm 2 mps 756 mmHg 67%
    22:00 +16°C° 0 mm 1 mps 756 mmHg 69%
    23:00 +16°C° 0 mm 1 mps 756 mmHg 71%

    Tomorrow, 19 August, Sunday

    Time Temperature Precipitation Wind Pressure Humidity
    00:00 +15°C° 0 mm 1 mps 756 mmHg 73%
    01:00 +15°C° 0 mm 1 mps 756 mmHg 75%
    02:00 +14°C° 0 mm 1 mps 756 mmHg 76%
    03:00 +14°C° 0 mm 1 mps 756 mmHg 78%
    04:00 +14°C° 0 mm 1 mps 756 mmHg 78%
    05:00 +14°C° 0 mm 1 mps 756 mmHg 78%
    06:00 +14°C° 0 mm 1 mps 756 mmHg 78%
    07:00 +16°C° 0 mm 1 mps 757 mmHg 71%
    08:00 +19°C° 0 mm 1 mps 757 mmHg 64%
    09:00 +21°C° 0 mm 1 mps 757 mmHg 57%
    10:00 +23°C° 0 mm 1 mps 756 mmHg 52%
    11:00 +24°C° 0 mm 1 mps 756 mmHg 48%
    12:00 +25°C° 0 mm 1 mps 756 mmHg 44%
    13:00 +25°C° 0 mm 1 mps 756 mmHg 43%
    14:00 +26°C° 0 mm 1 mps 755 mmHg 41%
    15:00 +26°C° 0 mm 1 mps 755 mmHg 40%
    16:00 +26°C° 0 mm 1 mps 754 mmHg 43%
    17:00 +25°C° 0 mm 1 mps 754 mmHg 47%
    18:00 +24°C° 0 mm 1 mps 754 mmHg 50%
    19:00 +23°C° 0 mm 1 mps 754 mmHg 53%
    20:00 +20°C° 0 mm 2 mps 754 mmHg 56%
    21:00 +18°C° 0 mm 2 mps 754 mmHg 59%
    22:00 +18°C° 0 mm 2 mps 754 mmHg 60%
    23:00 +17°C° 0 mm 2 mps 754 mmHg 61%

    Day after tomorrow, 20 August, Monday

    Time Temperature Precipitation Wind Pressure Humidity
    00:00 +17°C° 0 mm 2 mps 754 mmHg 63%
    01:00 +16°C° 0 mm 2 mps 754 mmHg 64%
    02:00 +16°C° 0 mm 2 mps 753 mmHg 65%
    03:00 +16°C° 0 mm 2 mps 753 mmHg 67%
    04:00 +15°C° 0 mm 2 mps 753 mmHg 68%
    05:00 +15°C° 0 mm 2 mps 753 mmHg 70%
    06:00 +15°C° 0 mm 2 mps 753 mmHg 71%
    07:00 +17°C° 0 mm 3 mps 753 mmHg 65%
    08:00 +19°C° 0 mm 3 mps 753 mmHg 59%
    09:00 +22°C° 0 mm 3 mps 753 mmHg 54%
    10:00 +23°C° 0 mm 4 mps 753 mmHg 50%
    11:00 +25°C° 0 mm 4 mps 753 mmHg 47%
    12:00 +26°C° 0 mm 4 mps 752 mmHg 43%
    13:00 +27°C° 0 mm 4 mps 752 mmHg 43%
    14:00 +27°C° 0 mm 4 mps 752 mmHg 42%
    15:00 +27°C° 0 mm 4 mps 751 mmHg 42%
    16:00 +27°C° 0 mm 4 mps 751 mmHg 46%
    17:00 +26°C° 0 mm 3 mps 751 mmHg 49%
    18:00 +26°C° 0 mm 3 mps 750 mmHg 53%
    19:00 +24°C° 0 mm 3 mps 750 mmHg 56%
    20:00 +22°C° 0 mm 3 mps 750 mmHg 59%
    21:00 +20°C° 0 mm 3 mps 750 mmHg 62%
    22:00 +20°C° 0 mm 3 mps 750 mmHg 63%
    23:00 +20°C° 0 mm 3 mps 750 mmHg 64%

    21 August, Tuesday

    Time Temperature Precipitation Wind Pressure Humidity
    00:00 +19°C° 0 mm 3 mps 750 mmHg 65%
    01:00 +19°C° 0 mm 3 mps 750 mmHg 67%
    02:00 +19°C° 0 mm 3 mps 750 mmHg 68%
    03:00 +18°C° 0 mm 3 mps 750 mmHg 69%
    04:00 +18°C° 0.1 mm 3 mps 750 mmHg 72%
    05:00 +18°C° 0.1 mm 3 mps 750 mmHg 75%
    06:00 +18°C° 0.1 mm 3 mps 750 mmHg 78%
    07:00 +19°C° 0 mm 3 mps 750 mmHg 73%
    08:00 +21°C° 0 mm 3 mps 750 mmHg 69%
    09:00 +24°C° 0 mm 3 mps 750 mmHg 64%
    10:00 +25°C° 0 mm 4 mps 750 mmHg 59%
    11:00 +27°C° 0 mm 4 mps 750 mmHg 53%
    12:00 +28°C° 0 mm 5 mps 749 mmHg 48%
    13:00 +28°C° 0 mm 5 mps 749 mmHg 47%
    14:00 +29°C° 0 mm 6 mps 748 mmHg 46%
    15:00 +29°C° 0 mm 6 mps 748 mmHg 45%
    16:00 +29°C° 0 mm 5 mps 748 mmHg 48%
    17:00 +28°C° 0 mm 5 mps 747 mmHg 51%
    18:00 +27°C° 0 mm 4 mps 747 mmHg 54%
    19:00 +26°C° 0 mm 4 mps 747 mmHg 56%
    20:00 +25°C° 0 mm 4 mps 746 mmHg 59%
    21:00 +23°C° 0 mm 4 mps 746 mmHg 61%
    22:00 +22°C° 0.2 mm 4 mps 746 mmHg 64%
    23:00 +22°C° 0.2 mm 4 mps 745 mmHg 67%

    22 August, Wednesday

    Time Temperature Precipitation Wind Pressure Humidity
    00:00 +21°C° 0.2 mm 4 mps 745 mmHg 70%
    01:00 +21°C° 0.4 mm 5 mps 745 mmHg 72%
    02:00 +20°C° 0.4 mm 5 mps 745 mmHg 74%
    03:00 +20°C° 0.4 mm 5 mps 744 mmHg 76%
    04:00 +19°C° 0.8 mm 5 mps 744 mmHg 80%
    05:00 +19°C° 0.8 mm 5 mps 745 mmHg 85%
    06:00 +17°C° 0.8 mm 5 mps 745 mmHg 89%
    07:00 +17°C° 0.1 mm 5 mps 745 mmHg 83%
    08:00 +17°C° 0.1 mm 5 mps 746 mmHg 76%
    09:00 +17°C° 0.1 mm 5 mps 746 mmHg 70%
    10:00 +19°C° 0 mm 6 mps 747 mmHg 62%
    11:00 +20°C° 0 mm 6 mps 747 mmHg 53%
    12:00 +21°C° 0 mm 6 mps 747 mmHg 45%
    13:00 +22°C° 0 mm 6 mps 747 mmHg 44%
    14:00 +22°C° 0 mm 6 mps 748 mmHg 42%
    15:00 +22°C° 0 mm 6 mps 748 mmHg 41%
    16:00 +22°C° 0 mm 6 mps 748 mmHg 45%
    17:00 +21°C° 0 mm 5 mps 749 mmHg 48%
    18:00 +20°C° 0 mm 4 mps 749 mmHg 52%
    19:00 +19°C° 0 mm 3 mps 749 mmHg 56%
    20:00 +17°C° 0 mm 3 mps 749 mmHg 59%
    21:00 +16°C° 0 mm 3 mps 750 mmHg 63%
    22:00 +14°C° 0 mm 3 mps 750 mmHg 65%
    23:00 +14°C° 0 mm 3 mps 750 mmHg 67%

    23 August, Thursday

    Time Temperature Precipitation Wind Pressure Humidity
    00:00 +13°C° 0 mm 3 mps 750 mmHg 70%
    01:00 +13°C° 0 mm 3 mps 750 mmHg 71%
    02:00 +12°C° 0 mm 3 mps 751 mmHg 73%
    03:00 +12°C° 0 mm 3 mps 751 mmHg 75%
    04:00 +13°C° 0 mm 2 mps 751 mmHg 76%
    05:00 +12°C° 0 mm 2 mps 751 mmHg 77%
    06:00 +12°C° 0 mm 2 mps 751 mmHg 78%
    07:00 +13°C° 0 mm 3 mps 751 mmHg 71%
    08:00 +16°C° 0 mm 3 mps 751 mmHg 63%
    09:00 +18°C° 0 mm 3 mps 752 mmHg 56%
    10:00 +19°C° 0 mm 4 mps 751 mmHg 52%
    11:00 +20°C° 0 mm 4 mps 751 mmHg 48%
    12:00 +21°C° 0 mm 4 mps 751 mmHg 43%
    13:00 +22°C° 0 mm 4 mps 751 mmHg 43%
    14:00 +22°C° 0 mm 4 mps 750 mmHg 42%
    15:00 +23°C° 0 mm 4 mps 750 mmHg 41%
    16:00 +22°C° 0 mm 4 mps 750 mmHg 45%
    17:00 +21°C° 0 mm 3 mps 750 mmHg 49%
    18:00 +21°C° 0 mm 3 mps 749 mmHg 53%
    19:00 +19°C° 0 mm 3 mps 749 mmHg 57%
    20:00 +18°C° 0 mm 3 mps 749 mmHg 61%
    21:00 +16°C° 0 mm 3 mps 749 mmHg 65%
    22:00 +16°C° 0 mm 3 mps 749 mmHg 65%
    23:00 +16°C° 0 mm 3 mps 749 mmHg 66%
    Show more